Location: B?lite?ti
(46.2833°N, 22.7333°E)
Time: 03:51:19
(UTC+00:00)

Cosmos 1689 Rocket - Pass Details

Date: 24 January 2021
Orbit: 353 x 367 km, 97.5° (Epoch: 26 February)

Event Time Altitude Azimuth Distance (km) Brightness Sun altitude
Exits shadow 17:13:36 58° 187° (S) 420 2.2 -19.1°
Drops below altitude 10° 17:15:56 10° 193° (SSW) 1,325 5.0 -19.5°
Sets 17:17:51 0° 193° (SSW) 2,161 6.1 -19.8°
